Flag for United Arab Emirates Weather past 2 weeks in Sharjah, Sharjah, United Arab Emirates

Now
73 °F

Sunny.


Feels Like: 77 °F
Forecast: 63 / 76 °F
Wind: 7 mph from Northeast

Location: Sharjah International Airport

Current Time: Dec 26, 2014 at 11:25:36 AM

Latest Report: Dec 26, 2014 at 11:00 AM


Visibility: 10 mi

Pressure: 30.18 "Hg

Humidity: 53%

Dew point: 55 °F

Location of SharjahLocation

Historic Weather in Sharjah — Graph

°F

Sharjah temperature yesterday

Maximum temperature yesterday: 75 °F (at 1:00 PM)
Minimum temperature yesterday: 61 °F (at 7:00 AM)
Average temperature yesterday: 70 °F

Past Weeks' High & Low Weather Summary

 TemperatureHumidityPressure
High84 °F (Dec 14, 2:00 PM)94% (Dec 12, 6:00 AM)30.21 "Hg (Dec 12, 6:00 AM)
Low37 °F (Dec 23, 9:00 PM)14% (Dec 14, 1:00 PM)29.92 "Hg (Dec 22, 3:00 PM)
Average69 °F59%30.09 "Hg
* Reported Dec 11 10:00 AM — Dec 26 10:00 AM, Sharjah, Weather by CustomWeather, © 2014

Note: Actual official high and low records may vary slightly from our data, if they occured in-between our weather recording intervals... More about our weather records

Advertising

Sharjah weather history for previous 24 hours

 ConditionsComfort  
Time TempWeatherWind HumidityBarometerVisibility
10:00 AM
Dec 26
68 °FPassing clouds.3 mph60%30.21 "HgN/A
9:00 AM61 °FPassing clouds.3 mph77%30.21 "HgN/A
8:00 AM54 °FPassing clouds.5 mph88%30.21 "HgN/A
7:00 AM54 °FClear.3 mph88%30.18 "Hg10 mi
6:00 AM54 °FClear.5 mph88%30.15 "Hg10 mi
4:00 AM54 °FClear.5 mph88%30.15 "Hg10 mi
3:00 AM57 °FClear.3 mph82%30.15 "Hg10 mi
2:00 AM57 °FClear.6 mph82%30.15 "Hg10 mi
1:00 AM61 °FClear.5 mph72%30.18 "Hg10 mi
12:00 AM63 °FClear.6 mph73%30.18 "Hg10 mi
11:00 PM
Dec 25
63 °FClear.6 mph68%30.18 "Hg10 mi
10:00 PM64 °FClear.6 mph68%30.18 "Hg10 mi
9:00 PM70 °FClear.5 mph57%30.18 "Hg10 mi
8:00 PM70 °FClear.7 mph57%30.18 "Hg10 mi
7:00 PM72 °FClear.6 mph57%30.18 "Hg10 mi
6:00 PM72 °FClear.7 mph53%30.15 "Hg10 mi
5:00 PM73 °FSunny.9 mph50%30.15 "Hg10 mi
4:00 PM73 °FPassing clouds.12 mph50%30.12 "HgN/A
3:00 PM75 °FPassing clouds.9 mph47%30.12 "HgN/A
2:00 PM75 °FScattered clouds.8 mph44%30.15 "HgN/A
1:00 PM75 °FScattered clouds.8 mph47%30.15 "HgN/A
12:00 PM73 °FScattered clouds.8 mph50%30.18 "HgN/A
11:00 AM73 °FScattered clouds.7 mph53%30.21 "HgN/A
Weather by CustomWeather, © 2014

See weather overviewHow to use our weather pages